Location: Unspecified
(0.0000°N, 0.0000°E)
Time: 18:46:24
(UTC+02:00)

ASC 2 Rocket - Visible Passes

Search period start: 30 June 2015 00:00
Search period end: 10 July 2015 00:00
Orbit: 555 x 2347 km, 24.0° (Epoch: 29 June)

Date Brightness Start Highest point End Pass type
(mag) Time Alt. Az. Time Alt. Az. Time Alt. Az.
30 Jun 7.2 04:03:20 14° SE 04:03:20 14° SE 04:04:49 10° SE visible
30 Jun 6.1 05:58:12 32° SSW 05:58:56 32° SSW 06:10:30 10° SE visible
01 Jul 6.6 04:56:35 25° SSE 04:56:35 25° SSE 05:02:10 10° SE visible
01 Jul 6.5 06:51:27 17° SW 06:57:45 25° S 07:08:26 10° SE visible
02 Jul 6.3 05:49:46 26° S 05:49:46 26° S 05:59:43 10° SE visible
03 Jul 6.9 04:48:02 17° SSE 04:48:02 17° SSE 04:51:13 10° SE visible
03 Jul 6.5 06:42:54 17° SSW 06:48:19 22° S 06:58:10 10° SE visible
04 Jul 6.5 05:41:07 22° S 05:41:07 22° S 05:48:59 10° SE visible
04 Jul 6.8 07:38:16 10° SW 07:47:25 23° S 07:57:54 10° SE visible
05 Jul 7.1 04:39:18 12° SE 04:39:18 12° SE 04:40:16 10° SE visible
05 Jul 6.5 06:34:09 16° SSW 06:38:57 21° S 06:48:04 10° SE visible
06 Jul 6.6 05:32:18 18° S 05:32:18 18° S 05:38:23 10° SE visible
06 Jul 6.8 07:28:57 10° SW 07:37:52 24° SSE 07:48:29 10° ESE visible
06 Jul 5.4 22:11:21 10° NNW 22:12:29 13° N 22:12:29 13° N visible
07 Jul 6.5 06:25:17 16° SSW 06:29:36 20° S 06:38:13 10° SE visible
08 Jul 6.7 05:23:25 15° SSE 05:23:25 15° SSE 05:27:58 10° SE visible
08 Jul 6.7 07:19:28 10° SW 07:28:15 25° SSE 07:39:06 10° ESE visible
08 Jul 4.8 22:01:11 10° NNW 22:03:43 22° N 22:03:43 22° N visible
09 Jul 6.5 06:16:24 16° SSW 06:20:14 19° SSE 06:28:35 10° SE visible
09 Jul 5.2 20:55:56 10° NNW 20:58:41 15° NNE 21:01:15 10° NE visible
